Regional Weather Roundup
Issued by NWS

Home | Current Version | Previous Version | Graphics & Text | Print | Product List | Glossary On
Versions: 1 2 3 4 5 6 7 8 9 10 11 12 13 14 15 16 17 18 19 20 21 22 23 24 25 26 27 28 29 30 31 32 33 34 35 36 37 38 39 40 41 42 43 44 45 46 47 48 49 50
000
ASUS43 KLOT 291408
RWRIL

ILLINOIS REGIONAL WEATHER ROUNDUP
NATIONAL WEATHER SERVICE CHICAGO/ROMEOVILLE IL
900 AM CDT SUN MAY 29 2016

NOTE: "FAIR" INDICATES FEW OR NO CLOUDS BELOW 12,000 FEET WITH NO
SIGNIFICANT WEATHER AND/OR OBSTRUCTIONS TO VISIBILITY.

* THESE STATIONS ARE NOT UNDER NWS QUALITY CONTROL. THEY ALSO MAY NOT
  REPORT WEATHER SUCH AS PRECIPITATION OR FOG.

ILZ001-002-007-009-015-016-024-291500-
NORTHWEST ILLINOIS

CITY           SKY/WX    TMP DP  RH WIND       PRES   REMARKS
MOLINE         CLOUDY    69  59  70 W13       30.03R
STERLING*      CLOUDY    66  61  84 W15       30.02R
SAVANNA*       CLOUDY    67  61  81 W9        30.01R
$$

ILZ003-004-008-010-011-017-018-291500-
NORTH CENTRAL ILLINOIS

CITY           SKY/WX    TMP DP  RH WIND       PRES   REMARKS
ROCKFORD       CLOUDY    69  60  73 W14       30.01R
FREEPORT*      CLOUDY    65  59  82 W10       30.01R
ROCHELLE*      MOSUNNY   68  62  80 W17       30.01R
DE KALB*       MOSUNNY   69  61  75 W17       30.01R
$$

ILZ005-006-012>014-019>023-291500-
NORTHEAST ILLINOIS

CITY           SKY/WX    TMP DP  RH WIND       PRES   REMARKS
CHICAGO-OHARE  MOSUNNY   72  61  68 SW16G24   29.99R
CHICAGO-MIDWAY MOSUNNY   75  60  59 SW13G23   30.00R
AURORA         SUNNY     73  63  70 SW13      30.01R
LANSING*       SUNNY     75  62  64 SW14      30.02R
JOLIET*        SUNNY     75  64  68 SW12G18   30.02R
WAUKEGAN       SUNNY     72  62  71 SW15G22   29.97R
DUPAGE AIRPORT SUNNY     72  61  68 SW16      30.00R
KANKAKEE*      SUNNY     76  65  68 SW15      30.05R
WHEELING       SUNNY     72  60  66 SW13G22   29.99R
MORRIS*        SUNNY     73  63  68 SW15      30.01S
ROMEOVILLE*    SUNNY     74  60  61 SW17      30.01S
NORTHERLY ISL    N/A     74  58  57 S12         N/A
NORTHERLY ISL    N/A     74  58  57 S12         N/A
$$

LMZ740>746-291500-
SOUTHERN LAKE MICHIGAN

STATION/POSITION SKY/WX   TEMP    WIND        PRES    VSBY  WAVE
                          AIR SEA DIR/SP/G                  HT/PER
                          (F)     (DEG/KT/KT) (MB)    (MI)  (FT/S)
SOUTHERN BUOY              54 50  170/ 10/ 10 1014.7S         1/ 3
WILMETTE HARBOR            66 53  250/ 14/ 17   N/A           1/ 2
HARRISON CRIB              70     200/ 12/ 13   N/A
BURNHAM HARBOR             75     190/ 10/ 16   N/A
CALUMET HARBOR             71     200/ 10/ 12 1015.1F
BURNS HARBOR               71     210/ 10/ 15 1016.6S
MICHIGAN CITY              70     190/ 13/ 15   N/A
MICHIGAN CITY 6N           63 57  210/  6/  8   N/A           1
ST. JOSEPH                 65 61  210/  6/  8   N/A           1/ 3
$$

ILZ025>027-034>036-040-047-049-050-058-095>099-291500-
WEST-CENTRAL ILLINOIS

CITY           SKY/WX    TMP DP  RH WIND       PRES   REMARKS
QUINCY         SUNNY     72  58  61 W7        30.08R
GALESBURG*     PTSUNNY   68  60  75 W10       30.06R
MACOMB*        SUNNY     70  60  71 W12       30.08S
JACKSONVILLE*  SUNNY     74  61  63 W10       30.08S
PITTSFIELD*    SUNNY     73  62  69 W9        30.10R
$$

ILZ028>032-037-038-041>044-048-051>054-059>061-291500-
CENTRAL ILLINOIS

CITY           SKY/WX    TMP DP  RH WIND       PRES   REMARKS
PONTIAC        SUNNY     75  65  72 SW17      30.05R
BLOOMINGTON    SUNNY     73  66  78 SW14G21   30.08R
DECATUR        SUNNY     76  63  64 SW9       30.08R
PEORIA         SUNNY     72  60  66 W9        30.05R
LACON*         SUNNY     71  58  63 W9        30.03R
LINCOLN*       SUNNY     75  64  67 W6        30.07R
SPRINGFIELD    SUNNY     78  61  55 W13       30.08R HX  80
TAYLORVILLE    SUNNY     75  62  64 SW9       30.08S
$$

ILZ033-039-045-046-055>057-062-063-291500-
EAST-CENTRAL ILLINOIS

CITY           SKY/WX    TMP DP  RH WIND       PRES   REMARKS
CHAMPAIGN      SUNNY     77  61  57 SW13      30.08R
RANTOUL*       SUNNY     77  65  67 SW12      30.07S
MATTOON        SUNNY     76  63  64 W7        30.08R
PARIS*         SUNNY     76  69  78 SW5       30.09S
$$

ILZ079-100>102-291500-
SOUTHWEST ILLINOIS

CITY           SKY/WX    TMP DP  RH WIND       PRES   REMARKS
ALTON          SUNNY     73  64  73 W8        30.10R
BELLEVILLE     SUNNY     78  69  73 W5        30.09R HX  80
CAHOKIA*       SUNNY     76  65  68 CALM      30.09R
SPARTA*        SUNNY     74  68  80 W5        30.11R
$$

ILZ064>066-069>071-074>076-080>082-084>086-088>090-092>094-291500-
SOUTH-CENTRAL ILLINOIS

CITY           SKY/WX    TMP DP  RH WIND       PRES   REMARKS
CARBONDALE     SUNNY     75  68  78 W5        30.10R
CAIRO*         SUNNY     74  70  86 SW3       30.11S
EFFINGHAM*     MOSUNNY   76  72  87 SW6       30.11R
MARION         PTSUNNY   75  70  83 W6        30.11R
MT. VERNON     PTSUNNY   73  66  78 W3        30.11R
CENTRALIA*     MOSUNNY   76  70  83 W3        30.10R
SALEM*         MOSUNNY   76  69  80 SW6       30.10R
METROPOLIS*    MOSUNNY   76  72  87 S3        30.11S
$$

ILZ067-068-072-073-078-083-087-091-291500-
SOUTHEAST ILLINOIS

CITY           SKY/WX    TMP DP  RH WIND       PRES   REMARKS
LAWRENCEVILLE  SUNNY     78  69  73 SW10      30.09S HX  80
FLORA*         MOSUNNY   76  71  83 SW5       30.10R
FAIRFIELD*     MOSUNNY   75  70  83 SW5       30.09S
HARRISBURG*    SUNNY     75  70  86 CALM      30.11R
ROBINSON*      SUNNY     76  69  77 W5        30.10R
CARMI*         MOSUNNY   76  70  82 SW6       30.09S
$$

ABBREVIATIONS USED IN REMARKS
   TC - TEMPERATURE IN CELSIUS
  WCI - WIND CHILL INDEX
   HX - HEAT INDEX
  VSB - VISIBILITY
$$





USA.gov is the U.S. government's official web portal to all federal, state and local government web resources and services.